User: anonymous   Login
Location: Ahstedt
(52.2048°N, 10.1060°E)
Time: 14:21:13
(UTC+00:00)
Language:

RUBIN 8/PSLV - Orbit

View from above orbital plane
View from above orbital plane
View from above satellite
View from above satellite

Ground track
Ground track

The orbit is defined by the following mean orbital elements,

1 32792U          26073.95053014 +.00000000 +00000-0 +17152-3 0 00000
2 32792  98.1449  73.4314 0022980 281.6415  78.2220 14.86118815    04
Epoch (UTC): 14 March 2026 22:48:45
Eccentricity: 0.0022980
inclination: 98.1449°
perigee height: 594 km
apogee height: 626 km
right ascension of ascending node: 73.4314°
argument of perigee: 281.6415°
revolutions per day: 14.86118815
mean anomaly at epoch: 78.2220°

The dashed part of the orbit path shows where the satellite is in the earth's shadow,  

DLR